EW5619 Weather Reports


time (UTC)temp
F
wind
direction
speed
knots
gust
knots
rain 1hr
in
rain 24hr
in
rain mn
in
humidity
%
barometer
mb
20260508043602 46 315 1.7 2.6 0.00 0.00 0.00 62 1007.8
20260508042704 46 0 0.0 0.0 0.00 0.00 0.00 61 1007.7
20260508041804 46 0 0.0 0.0 0.00 0.00 0.00 61 1007.7
20260508040902 46 315 0.0 0.0 0.00 0.00 0.00 59 1007.8
20260508040005 46 312 1.7 1.7 0.00 0.00 0.00 59 1007.8
20260508035403 47 318 1.7 2.6 0.00 0.00 0.00 59 1007.7
20260508034502 47 0 0.0 0.0 0.00 0.00 0.00 58 1007.7
20260508033602 47 285 0.0 0.9 0.00 0.00 0.00 58 1007.8
20260508032724 47 252 0.0 0.0 0.00 0.00 0.00 57 1007.6
20260508031803 47 311 2.6 2.6 0.00 0.00 0.00 58 1007.6
20260508030903 47 317 1.7 2.6 0.00 0.00 0.00 59 1007.5
20260508030003 47 0 0.0 0.0 0.00 0.00 0.00 59 1007.6
20260508025402 47 0 0.0 0.0 0.00 0.00 0.00 57 1007.7
20260508024503 48 253 0.0 0.0 0.00 0.00 0.00 56 1007.7
20260508023624 47 299 0.0 1.7 0.00 0.00 0.00 57 1007.8
20260508022703 47 298 2.6 2.6 0.00 0.00 0.00 60 1007.6
20260508021803 47 312 0.0 0.9 0.00 0.00 0.00 58 1007.8
20260508020903 48 0 0.0 0.0 0.00 0.00 0.00 57 1007.8
20260508020002 48 313 0.0 0.0 0.00 0.00 0.00 58 1007.6
20260508015403 48 0 0.0 0.0 0.00 0.00 0.00 57 1007.7
20260508014504 48 0 0.0 0.0 0.00 0.00 0.00 55 1007.6
20260508013603 48 311 0.0 2.6 0.00 0.00 0.00 54 1007.4
20260508012703 49 312 1.7 2.6 0.00 0.00 0.00 53 1007.7
20260508011803 49 282 0.0 0.0 0.00 0.00 0.00 51 1007.4
20260508010903 49 320 0.9 1.7 0.00 0.00 0.00 51 1007.7
20260508010003 49 323 0.0 0.0 0.00 0.00 0.00 50 1007.4
20260508005424 50 319 1.7 2.6 0.00 0.00 0.00 50 1007.1
20260508004502 50 295 1.7 2.6 0.00 0.00 0.00 48 1007.2
20260508003624 50 269 1.7 1.7 0.00 0.00 0.00 47 1007.1
20260508002703 50 304 1.7 2.6 0.00 0.00 0.00 46 1007.1
20260508001804 50 307 2.6 3.5 0.00 0.00 0.00 47 1007.1
20260508000904 50 282 0.0 3.5 0.00 0.00 0.00 45 1006.8
20260508000003 50 252 0.0 0.9 0.00 0.00 0.00 45 1006.9
20260507235424 50 286 0.9 1.7 0.00 0.00 0.00 47 1006.9
20260507234503 50 319 0.0 0.9 0.00 0.00 0.00 50 1006.8
20260507233603 50 310 1.7 2.6 0.00 0.00 0.00 50 1006.9
20260507232703 50 14 0.0 0.0 0.00 0.00 0.00 49 1006.9
20260507231802 51 295 0.0 0.9 0.00 0.00 0.00 45 1006.7
20260507230903 51 310 0.9 1.7 0.00 0.00 0.00 43 1006.8
20260507230024 51 297 1.7 1.7 0.00 0.00 0.00 43 1006.6
20260507225403 52 65 0.9 1.7 0.00 0.00 0.00 45 1006.8
20260507224503 52 291 0.0 0.9 0.00 0.00 0.00 45 1006.6
20260507223604 52 328 0.9 0.9 0.00 0.00 0.00 44 1007.0
20260507222703 52 345 0.9 1.7 0.00 0.00 0.00 44 1007.0
20260507221803 52 39 0.0 0.9 0.00 0.00 0.00 45 1006.7
20260507220903 53 353 1.7 2.6 0.00 0.00 0.00 45 1006.8
20260507220003 52 23 0.9 0.9 0.00 0.00 0.00 47 1006.8
20260507215402 52 326 1.7 2.6 0.00 0.00 0.00 46 1007.1
20260507214503 52 302 1.7 2.6 0.00 0.00 0.00 43 1006.9
20260507213603 52 323 2.6 3.5 0.00 0.00 0.00 43 1006.8
20260507212703 52 301 1.7 1.7 0.00 0.00 0.00 43 1006.7
20260507211824 52 302 0.0 0.9 0.00 0.00 0.00 44 1007.0
20260507210925 52 297 0.9 1.7 0.00 0.00 0.00 44 1006.6
20260507210004 52 359 0.9 0.9 0.00 0.00 0.00 45 1006.9
20260507205404 52 12 3.5 3.5 0.00 0.00 0.00 45 1006.6
20260507204524 51 8 1.7 2.6 0.00 0.00 0.00 47 1006.7
20260507203603 51 15 4.3 5.2 0.00 0.00 0.00 47 1007.0
20260507202703 51 8 1.7 3.5 0.00 0.00 0.00 48 1006.9
20260507201803 51 325 1.7 2.6 0.00 0.00 0.00 47 1006.7
20260507200903 51 300 1.7 3.5 0.00 0.00 0.00 45 1006.8
20260507200003 51 324 2.6 2.6 0.00 0.00 0.00 46 1006.7
20260507195424 51 306 1.7 1.7 0.00 0.00 0.00 46 1006.9
20260507194502 51 315 2.6 5.2 0.00 0.00 0.00 43 1006.8
20260507193624 51 297 0.9 3.5 0.00 0.00 0.00 44 1007.2
20260507192703 51 311 5.2 9.6 0.00 0.00 0.00 42 1006.7
20260507191824 51 312 1.7 3.5 0.00 0.00 0.00 42 1006.6
20260507190903 51 305 3.5 3.5 0.00 0.00 0.00 41 1006.8
20260507190004 53 289 7.8 12.2 0.00 0.00 0.00 39 1006.8
20260507185404 51 290 3.5 5.2 0.00 0.00 0.00 42 1006.7
20260507184503 51 315 1.7 2.6 0.00 0.00 0.00 42 1006.8
20260507183603 50 316 3.5 5.2 0.00 0.00 0.00 44 1006.7
20260507182703 50 332 3.5 3.5 0.00 0.00 0.00 43 1006.9
20260507181824 50 356 1.7 3.5 0.00 0.00 0.00 44 1006.8
20260507180902 50 319 2.6 2.6 0.00 0.00 0.00 44 1006.8
20260507180024 50 311 3.5 5.2 0.00 0.00 0.00 43 1006.9
20260507175424 50 300 1.7 3.5 0.00 0.00 0.00 42 1006.8
20260507174503 51 298 2.6 7.0 0.00 0.00 0.00 42 1006.7
20260507173603 50 331 0.9 2.6 0.00 0.00 0.00 43 1006.6
20260507172703 51 302 2.6 7.8 0.00 0.00 0.00 41 1006.5
20260507171803 52 288 3.5 13.9 0.00 0.00 0.00 40 1006.6
20260507170903 51 309 3.5 7.8 0.00 0.00 0.00 41 1006.6
20260507170003 52 298 6.1 9.6 0.00 0.00 0.00 40 1006.8
20260507165403 53 286 5.2 9.6 0.00 0.00 0.00 39 1006.8
20260507164503 52 298 8.7 15.6 0.00 0.00 0.00 41 1006.8
20260507163603 52 285 9.6 11.3 0.00 0.00 0.00 40 1006.9
20260507162723 51 312 5.2 7.8 0.00 0.00 0.00 41 1007.2
20260507161803 50 304 1.7 7.0 0.00 0.00 0.00 42 1007.1
20260507160924 50 295 5.2 11.3 0.00 0.00 0.00 44 1007.4
20260507160003 50 278 5.2 8.7 0.00 0.00 0.00 47 1007.3
20260507155403 51 289 4.3 5.2 0.00 0.01 0.00 47 1007.3
20260507154524 50 292 3.5 7.0 0.00 0.01 0.00 46 1007.3
20260507153604 51 275 4.3 7.8 0.00 0.01 0.00 46 1007.4
20260507152703 51 278 7.0 12.2 0.00 0.01 0.00 44 1007.4
20260507151802 50 303 1.7 2.6 0.00 0.01 0.00 46 1007.0
20260507150903 49 301 3.5 13.9 0.00 0.02 0.00 52 1007.2
20260507150003 50 298 2.6 7.8 0.00 0.03 0.00 52 1007.1
20260507145403 50 303 3.5 7.8 0.00 0.04 0.00 50 1007.1
20260507144503 50 278 4.3 6.1 0.00 0.07 0.00 52 1007.0
20260507143603 51 268 3.5 7.0 0.00 0.09 0.00 53 1006.7
20260507142702 48 294 5.2 7.0 0.00 0.10 0.00 54 1007.0
20260507141824 49 292 7.0 9.6 0.00 0.11 0.00 53 1007.1
20260507140903 48 288 3.5 6.1 0.00 0.12 0.00 54 1007.1
20260507140003 48 315 0.9 2.6 0.00 0.13 0.00 58 1007.3
20260507135424 48 286 5.2 7.8 0.00 0.14 0.00 57 1007.3
20260507134524 47 282 10.4 15.6 0.00 0.15 0.00 56 1007.1
20260507133602 47 290 5.2 7.0 0.00 0.16 0.00 56 1007.2
20260507132703 46 285 3.5 7.8 0.00 0.17 0.00 58 1007.1
20260507131824 46 274 3.5 13.0 0.00 0.18 0.00 58 1007.1
20260507130903 47 280 5.2 13.9 0.00 0.18 0.00 57 1007.2
20260507130003 47 275 1.7 3.5 0.00 0.19 0.00 58 1007.3
20260507125404 46 290 7.8 9.6 0.00 0.19 0.00 59 1007.3
20260507124503 45 299 6.1 7.8 0.00 0.19 0.00 60 1007.2
20260507123604 46 286 3.5 3.5 0.00 0.19 0.00 60 1007.3
20260507122703 45 292 9.6 13.0 0.00 0.20 0.00 60 1007.4
20260507121824 44 273 5.2 13.0 0.00 0.21 0.00 62 1007.2
20260507120903 44 286 4.3 13.0 0.00 0.22 0.00 61 1007.4
20260507120003 44 276 5.2 8.7 0.00 0.22 0.00 63 1007.3
20260507115403 44 286 7.0 13.0 0.00 0.23 0.00 63 1007.1
20260507114503 44 281 5.2 7.0 0.00 0.24 0.00 63 1007.1
20260507113603 44 264 1.7 3.5 0.00 0.25 0.00 64 1007.1
20260507112703 44 264 4.3 7.0 0.00 0.26 0.00 64 1007.2
20260507111802 44 267 6.1 9.6 0.00 0.27 0.00 65 1007.0
20260507110903 43 265 4.3 11.3 0.00 0.28 0.00 66 1007.2
20260507110004 42 267 5.2 11.3 0.00 0.29 0.00 68 1007.1
20260507105425 42 270 7.0 11.3 0.00 0.30 0.00 68 1006.9
20260507104503 42 251 4.3 6.1 0.00 0.30 0.00 70 1006.9
20260507103603 43 283 2.6 3.5 0.00 0.31 0.00 70 1006.8
20260507102703 43 286 2.6 7.0 0.00 0.32 0.00 70 1006.7
20260507101803 43 274 4.3 6.1 0.00 0.33 0.00 75 1006.6
20260507100904 44 260 6.1 9.6 0.00 0.33 0.00 75 1006.5
20260507100003 44 268 1.7 6.1 0.00 0.34 0.00 74 1006.1
20260507095403 44 278 2.6 5.2 0.00 0.34 0.00 80 1006.4
20260507094503 44 269 3.5 7.0 0.00 0.34 0.00 84 1006.4
20260507093603 45 268 6.1 8.7 0.00 0.35 0.00 87 1006.4
20260507092703 44 269 6.1 7.0 0.00 0.35 0.00 88 1006.4
20260507091804 45 280 2.6 6.1 0.00 0.35 0.00 88 1006.4
20260507090903 45 263 5.2 8.7 0.00 0.35 0.00 87 1006.7
20260507090003 45 260 1.7 7.8 0.00 0.35 0.00 88 1006.6
20260507085402 44 266 2.6 5.2 0.00 0.35 0.00 88 1006.5
20260507084504 45 271 6.1 9.6 0.00 0.35 0.00 87 1006.3
20260507083603 45 265 6.1 7.8 0.00 0.35 0.00 87 1006.2
20260507082703 44 262 5.2 7.8 0.00 0.35 0.00 88 1006.0
20260507081803 45 275 2.6 7.8 0.00 0.35 0.00 88 1006.2
20260507080903 45 264 5.2 11.3 0.00 0.35 0.00 88 1006.2
20260507080003 44 266 6.1 7.8 0.00 0.35 0.00 89 1006.5
20260507075403 45 296 2.6 3.5 0.00 0.35 0.00 89 1006.4
20260507074503 45 263 5.2 6.1 0.00 0.35 0.00 88 1006.6
20260507073603 45 262 5.2 7.0 0.00 0.35 0.00 88 1006.6
20260507072703 44 263 4.3 7.0 0.00 0.35 0.00 89 1006.5
20260507071824 45 265 2.6 5.2 0.00 0.35 0.00 88 1006.7
20260507070903 45 266 2.6 7.8 0.00 0.35 0.00 88 1006.4
20260507070004 45 281 3.5 6.1 0.00 0.35 0.00 89 1006.5
20260507065424 45 298 3.5 6.1 0.00 0.35 0.00 88 1006.4
20260507064503 45 277 2.6 6.1 0.00 0.35 0.00 87 1006.7
20260507063604 45 275 5.2 7.0 0.00 0.35 0.00 87 1006.8
20260507062703 44 282 4.3 6.1 0.00 0.35 0.00 88 1006.9
20260507061803 45 269 5.2 6.1 0.00 0.35 0.00 86 1006.8
20260507060903 45 265 3.5 5.2 0.00 0.35 0.00 86 1006.9
20260507060003 44 282 3.5 5.2 0.00 0.35 0.00 87 1006.7
20260507055403 44 278 4.3 5.2 0.00 0.35 0.00 86 1006.8
20260507054503 44 256 3.5 6.1 0.00 0.35 0.00 85 1007.0
20260507053603 44 274 2.6 3.5 0.00 0.35 0.00 86 1007.0
20260507052703 44 282 2.6 3.5 0.00 0.35 0.00 86 1007.1
20260507051803 44 248 1.7 5.2 0.00 0.35 0.00 85 1007.2
20260507050903 44 302 1.7 3.5 0.00 0.35 0.00 87 1007.1
20260507050003 44 295 3.5 5.2 0.00 0.35 0.00 87 1007.1
20260507045403 45 267 0.0 0.9 0.00 0.35 0.00 87 1007.4
20260507044503 44 273 1.7 2.6 0.00 0.35 0.00 88 1007.5